Georgetown, DE

6:26 PM EDT on June 22, 2017 (GMT -0400)
Sussex County

Weather History for KGED - November, 2013

Change the Weather History Date:

Tuesday, November 12, 2013

  Actual Average Record
Temperature  
Mean Temperature 43 °F 50 °F  
Max Temperature 52 °F 60 °F 74 °F (1985)
Min Temperature 33 °F 40 °F 18 °F (1957)
Degree Days  
Heating Degree Days 22 15  
Month to date heating degree days 171 166  
Since 1 July heating degree days 414 452  
Cooling Degree Days 0 0  
Month to date cooling degree days 5 0  
Year to date cooling degree days 1396 1194  
Moisture  
Dew Point 27 °F    
Average Humidity 56    
Maximum Humidity 76    
Minimum Humidity 35    
Precipitation  
Precipitation 0.01 in 0.10 in 2.86 in (2009)
Month to date precipitation 0.24 1.41  
Year to date precipitation 47.65 38.53  
Sea Level Pressure  
Sea Level Pressure 30.17 in    
Wind  
Wind Speed 9 mph (NNW)    
Max Wind Speed 21 mph    
Max Gust Speed 32 mph    
Visibility 10 miles    
Events Rain    
T = Trace of Precipitation, MM = Missing Value Source: NWS Daily Summary

Daily Weather History Graph

Daily Weather History Graph

Search for Another Location

Airport or City:

Trip Planner

Search our weather history database for the weather conditions in past years. The results will help you decide how hot, cold, wet, or windy it might be!

Date:

Astronomy

Nov. 12, 2013 Rise Set
Actual Time 6:40 AM EST 4:50 PM EST
Civil Twilight 6:12 AM EST 5:18 PM EST
Nautical Twilight 5:40 AM EST 5:50 PM EST
Astronomical Twilight 5:09 AM EST 6:21 PM EST
Moon 2:00 PM EST (11/12) 1:31 AM EST (11/12)
Length of Visible Light 11h 06m
Length of Day
10h 09m
Waxing Gibbous, 76% of the Moon is Illuminated
Nov 12
Waxing Gibbous
Nov 17
Full
Nov 25
Last Quarter
Dec 2
New
Dec 9
First Quarter

Hourly Weather History & Observations

Time (EST) Temp. Windchill Dew Point Humidity Pressure Visibility Wind Dir Wind Speed Gust Speed Precip Events Conditions
12:54 AM 50.0 °F - 39.0 °F 66% 30.03 in 10.0 mi SW 11.5 mph - N/A   Mostly Cloudy
1:54 AM 50.0 °F - 37.9 °F 63% 30.00 in 10.0 mi SW 11.5 mph - N/A   Scattered Clouds
2:54 AM 51.1 °F - 37.0 °F 59% 29.99 in 10.0 mi SW 9.2 mph - N/A   Partly Cloudy
3:54 AM 51.1 °F - 36.0 °F 56% 29.99 in 10.0 mi Variable 3.5 mph - N/A   Partly Cloudy
4:54 AM 50.0 °F - 36.0 °F 59% 30.00 in 10.0 mi Calm Calm - N/A   Clear
5:54 AM 48.9 °F - 37.0 °F 64% 30.01 in 10.0 mi Calm Calm - N/A   Mostly Cloudy
6:54 AM 48.9 °F - 37.0 °F 64% 30.02 in 10.0 mi SW 3.5 mph - N/A   Overcast
7:54 AM 50.0 °F - 36.0 °F 59% 30.05 in 10.0 mi Variable 6.9 mph - N/A   Overcast
8:54 AM 45.0 °F 37.4 °F 37.0 °F 74% 30.12 in 10.0 mi North 18.4 mph 24.2 mph 0.00 in Rain Light Rain
9:43 AM 41.0 °F 33.1 °F 33.1 °F 73% 30.16 in 10.0 mi North 15.0 mph 26.5 mph 0.01 in   Overcast
9:54 AM 39.9 °F 30.2 °F 33.1 °F 77% 30.16 in 10.0 mi North 20.7 mph 32.2 mph 0.01 in   Overcast
10:07 AM 39.9 °F 32.1 °F 33.1 °F 77% 30.17 in 10.0 mi North 13.8 mph 24.2 mph N/A   Overcast
10:17 AM 39.9 °F 32.1 °F 32.0 °F 73% 30.17 in 10.0 mi North 13.8 mph 29.9 mph N/A   Overcast
10:54 AM 39.9 °F 33.9 °F 32.0 °F 73% 30.19 in 10.0 mi North 9.2 mph 25.3 mph N/A   Overcast
11:54 AM 37.9 °F 30.5 °F 30.9 °F 76% 30.19 in 10.0 mi North 11.5 mph 20.7 mph 0.00 in   Overcast
12:41 PM 37.0 °F 31.0 °F 27.0 °F 67% 30.19 in 10.0 mi North 8.1 mph - 0.00 in   Overcast
12:54 PM 37.0 °F 32.4 °F 27.0 °F 67% 30.20 in 10.0 mi North 5.8 mph - 0.00 in   Overcast
1:54 PM 39.0 °F 31.8 °F 19.0 °F 45% 30.21 in 10.0 mi NNW 11.5 mph 20.7 mph N/A   Overcast
2:54 PM 39.0 °F 31.8 °F 16.0 °F 39% 30.22 in 10.0 mi North 11.5 mph 23.0 mph N/A   Overcast
3:54 PM 39.0 °F 32.3 °F 16.0 °F 39% 30.24 in 10.0 mi North 10.4 mph - N/A   Mostly Cloudy
4:54 PM 37.9 °F 31.5 °F 16.0 °F 41% 30.25 in 10.0 mi NNW 9.2 mph - N/A   Clear
5:54 PM 37.9 °F 31.5 °F 14.0 °F 38% 30.28 in 10.0 mi North 9.2 mph 18.4 mph N/A   Clear
6:54 PM 37.0 °F 31.6 °F 16.0 °F 42% 30.31 in 10.0 mi NNW 6.9 mph - N/A   Clear
7:54 PM 37.9 °F 32.1 °F 16.0 °F 41% 30.31 in 10.0 mi NNW 8.1 mph 16.1 mph N/A   Clear
8:54 PM 37.9 °F 32.7 °F 15.1 °F 39% 30.32 in 10.0 mi North 6.9 mph 17.3 mph N/A   Clear
9:54 PM 37.0 °F 31.0 °F 12.9 °F 37% 30.34 in 10.0 mi North 8.1 mph - N/A   Clear
10:54 PM 36.0 °F 30.3 °F 12.0 °F 37% 30.35 in 10.0 mi NNW 6.9 mph - N/A   Clear
11:54 PM 34.0 °F 31.0 °F 12.9 °F 42% 30.37 in 10.0 mi Variable 3.5 mph - N/A   Clear